Вернуться в каталог

OPS 4682 DEB

АктивенPO
NORAD 26733·DEBRIS·🇺🇸 United States

Запущен Apr 3, 1965 с Vandenberg Space Force Base

Loading…

Ближайшие Пролёты (ближайшие 24 часа)

TLE

СвежийSource: Space-Track

Эпоха: Sep 14, 2026, 06:42 UTC

1 26733U 65027BG  26257.27918421  .00000005  00000-0 -69415-5 0  9993
2 26733  90.2476   8.1301 0032493 354.4358  33.5563 12.94446199208539

Отслеживайте OPS 4682 DEB в реальном времени с AllMySat

Download on the App Store